Regional Weather Roundup
Issued by NWS

Home | Current Version | Previous Version | Graphics & Text | Print | Product List | Glossary On
Versions: 1 2 3 4 5 6 7 8 9 10 11 12 13 14 15 16 17 18 19 20 21 22 23 24 25 26 27 28 29 30 31 32 33 34 35 36 37 38 39 40 41 42 43 44 45 46 47 48 49 50
000
ASUS45 KTFX 271210
RWRMT
MONTANA REGIONAL WEATHER ROUNDUP
NATIONAL WEATHER SERVICE GREAT FALLS MT
600 AM MDT WED MAY 27 2015

NOTE: "FAIR" INDICATES FEW OR NO CLOUDS BELOW 12000 FEET WITH NO
SIGNIFICANT WEATHER AND/OR OBSTRUCTIONS TO VISIBILITY.

MTZ001>007-043-271300-
WEST OF THE DIVIDE

CITY           SKY/WX    TMP DP  RH WIND       PRES   REMARKS
KALISPELL      PTSUNNY   44  42  93 MISG      30.00S
MISSOULA       MOCLDY    45  42  89 CALM      30.04S
BUTTE          CLOUDY    46  42  86 CALM      30.07R
MULLAN PASS    CLEAR     44  39  82 S3        30.05S
$$

MTZ008-052>055-271300-
SOUTHWEST MONTANA

CITY           SKY/WX    TMP DP  RH WIND       PRES   REMARKS
BOZEMAN        CLOUDY    49  45  86 CALM      30.04S
DILLON         MOCLDY    47  45  93 NE6       30.04S
W YELLOWSTONE  CLOUDY    41  39  93 CALM      30.10S
$$

MTZ009-010-012-014-046-048-049-054-271300-
EAST SLOPES AND CENTRAL MONTANA

CITY           SKY/WX    TMP DP  RH WIND       PRES   REMARKS
CUT BANK       MOCLDY    46  44  93 NW10      30.02S FOG
GREAT FALLS    CLOUDY    50  48  93 SW12      30.02R
MALMSTROM AFB  MOCLDY    50  48  92 SW10      30.03R
HELENA         LGT RAIN  50  48  93 CALM      30.03S
$$

MTZ011-013-016-021-045-047-050-051-271300-
NORTH CENTRAL MONTANA

CITY           SKY/WX    TMP DP  RH WIND       PRES   REMARKS
HAVRE          CLOUDY    51  49  92 SW9       29.96S
LEWISTOWN      CLOUDY    45  42  89 SE5       30.01R
N BAR RANCH    CLOUDY    45  43  93 W5        30.02S
$$

MTZ017>020-022>027-061-062-271300-
NORTHEAST MONTANA

CITY           SKY/WX    TMP DP  RH WIND       PRES   REMARKS
GLASGOW        LGT RAIN  60  51  72 E8        29.91F
JORDAN           N/A     56  53  90 W6        29.93R
SIDNEY         CLEAR     48  45  87 CALM      29.93S
WOLF POINT     MOCLDY    55  49  80 NE6       29.91R
$$

MTZ028>42-056>058-271300-
SOUTHCENTRAL AND SOUTHEAST MONTANA

CITY           SKY/WX    TMP DP  RH WIND       PRES   REMARKS
BAKER          PTCLDY    48  45  89 E5        29.96R
BILLINGS       LGT RAIN  54  49  83 SW7       29.98R
LIVINGSTON     MOCLDY    52  44  74 W12       30.02R
MILES CITY     CLOUDY    56  50  80 CALM      29.91R
$$

REGIONAL REPORTS...DAKOTAS

CITY           SKY/WX    TMP DP  RH WIND       PRES   REMARKS
WILLISTON      CLEAR     52  44  74 S3        29.93R
MINOT          CLEAR     57  47  69 N7        29.93R
DICKINSON      CLEAR     49  44  83 E6        29.94S
BEACH          FAIR      46  46 100 CALM      29.95S
CROSBY         FAIR      50  50 100 CALM      29.94R
WATFORD CITY   FAIR      48  43  81 CALM      29.92S
BISMARCK       CLEAR     52  47  83 CALM      29.96R
GRAND FORKS    PTSUNNY   57  50  77 N13       29.89R
FARGO          SUNNY     56  49  77 W5        29.88R
BUFFALO SD       N/A     52  47  83 SE6       29.90S
RAPID CITY     CLOUDY    51  49  92 CALM      29.99R
$$

REGIONAL REPORTS...WYOMING/IDAHO/WASHINGTON

CITY           SKY/WX    TMP DP  RH WIND       PRES   REMARKS
GILLETTE       PTCLDY    47  45  93 S12       29.99R
SHERIDAN       CLOUDY    49  46  90 VRB5      29.98R
BUFFALO WY     CLOUDY    51  47  86 VRB6      29.99R
CODY           PTCLDY    48  46  93 CALM      30.02R
YELLOWSTONE LA   N/A     37  36  96 CALM      30.16R
IDAHO FALLS    MOCLDY    45  43  93 N5        30.06S
SALMON         CLOUDY    46  45  93 W6        30.03S
BOISE          MOCLDY    56  46  69 W5        30.00R
SPOKANE        PTCLDY    49  46  90 S3        30.00R
$$

REGIONAL REPORTS...ALBERTA

CITY           SKY/WX    TMP DP  RH WIND       PRES   REMARKS
EDMONTON       PTCLDY    46  43  87 CALM      29.97S
CALGARY        CLOUDY    54  45  71 NE3       30.05S
LETHBRIDGE     MOCLDY    50  48  93 SW6       30.02S FOG
MEDICINE HAT   MOCLDY    54  48  82 W5        29.96F
$$

REGIONAL REPORTS...SASKATCHEWAN

CITY           SKY/WX    TMP DP  RH WIND       PRES   REMARKS
SWIFT CURRENT  MOCLDY    52  46  82 E15       29.95R
REGINA         PTCLDY    52  45  76 E12       29.97R
SASKATOON      MOCLDY    45  41  87 NE12      30.05R
$$



USA.gov is the U.S. government's official web portal to all federal, state and local government web resources and services.